STARLINK-1663 (46535 NORAD) Tracking and Keplerian Element Data

This shows tracking and keplerian element data for the satellite.

Feedback or suggestion? Click here.




ElementValue
Catalog46535
NameSTARLINK-1663
Epoch Orbit177
Epoch Day304.91667824
Epoch Year2020
RAAN321.9481
Inclination52.9999
Eccentricity0.0001012
Argument of Perigee64.5282
Mean Anonmoly189.6111
Mean Motion15.62630754
Decay Rate0.00061965
L11 46535U 20070D 20304.91667824 .00061965 00000-0 68063-3 0 9997
L22 46535 52.9999 321.9481 0001012 64.5282 189.6111 15.62630754 1778

Live tracking and technical data element details for STARLINK-1663 (NORAD 46535). STARLINK-1663 can be tracked NOW for your location showing map with azimuth and elevation plus other details from your city location.

Track the satellite on the map from your city or location and see movement details for azimuth, elevation, latitude, longitude, range, height, and movement on the map or in text.







IsCatalogInMostPopularTable: catalog: 46535, numindb: 3
Update: records affected: 1



GetName: 46535 STARLINK-1663

Hit Count: updated at: Sat, 31 Oct 2020 09:35:12 GMT